Observations for Trim Market St
| Time | AQI | Temp °C | Hum % | Pres Pa | CO μg/m³ | H₂S μg/m³ | NO μg/m³ | NO₂ μg/m³ | O₃ μg/m³ | SO₂ μg/m³ | PM1 μg/m³ | PM2.5 μg/m³ | PM10 μg/m³ |
|---|---|---|---|---|---|---|---|---|---|---|---|---|---|
| Wednesday 8 July 2026 | |||||||||||||
| 19:37 | 1 | 31.7 | 44 | 63,649 | 0 | 7.07 | 0 | 12.14 | 13.8 | 0 | 2.85 | 5.86 | 6.74 |
| 19:35 | 1 | 31.8 | 44 | 63,701 | 0 | 6.9 | 0 | 12.84 | 11.85 | 0 | 2.14 | 5.35 | 5.96 |
| 19:32 | 1 | 31.9 | 43 | 63,697 | 0 | 7.92 | 0 | 12.64 | 13.69 | 0 | 3.56 | 5.88 | 6.74 |
| 19:31 | 1 | 31.9 | 43 | 63,685 | 0 | 8.72 | 0 | 18.24 | 4.4 | 0 | 2.14 | 5.88 | 6.74 |
| 19:29 | 1 | 31.9 | 43 | 63,780 | 0 | 7.59 | 0 | 12.67 | 9.21 | 0 | 2.14 | 5.37 | 7.53 |
| 19:19 | 1 | 32.2 | 43 | 64,268 | 0 | 10.69 | 0 | 13.94 | 12.56 | 0 | 4.28 | 6.97 | 8.32 |
| 19:18 | 1 | 32.3 | 42 | 64,301 | 0 | 11.73 | 0 | 15.73 | 10.85 | 0 | 2.85 | 5.93 | 6.74 |
| 19:17 | 1 | 32.3 | 42 | 64,384 | 0 | 11.22 | 0 | 20.16 | 3.2 | 0 | 4.28 | 6.99 | 8.32 |
| 19:16 | 1 | 32.3 | 42 | 64,458 | 0 | 9.96 | 0 | 15.96 | 7.41 | 0 | 2.14 | 5.42 | 6.73 |
| 19:15 | 1 | 32.3 | 42 | 64,462 | 0 | 9.28 | 0 | 13.87 | 13.75 | 0 | 2.85 | 5.95 | 6.73 |
| 19:14 | 1 | 32.4 | 42 | 64,487 | 0 | 7.23 | 0 | 14.36 | 5.2 | 0 | 4.28 | 7.53 | 9.91 |
| 19:13 | 1 | 32.4 | 42 | 64,493 | 0 | 9.84 | 0 | 13.45 | 7.35 | 0 | 2.85 | 6.47 | 7.53 |
| 19:12 | 1 | 32.4 | 42 | 64,469 | 0 | 12.8 | 0 | 13.96 | 13.23 | 0 | 2.85 | 6.48 | 7.53 |
| 19:10 | 1 | 32.5 | 42 | 64,617 | 0 | 10.45 | 0 | 15.76 | 12.29 | 0 | 2.14 | 5.44 | 5.94 |
| 19:06 | 1 | 32.6 | 42 | 64,647 | 0 | 13.97 | 0 | 14.05 | 4 | 0 | 3.56 | 5.97 | 6.73 |
| 19:04 | 1 | 32.7 | 41 | 64,701 | 0 | 16.14 | 0 | 30.26 | 0 | 0 | 3.56 | 7.04 | 8.32 |
| 19:03 | 1 | 32.7 | 41 | 64,734 | 0 | 13.1 | 0 | 19.28 | 5.19 | 0 | 2.85 | 6 | 7.53 |
| 18:54 | 1 | 32.9 | 41 | 64,848 | 0.13 | 31.5 | 0 | 21.34 | 9.21 | 0.7 | 2.14 | 5.48 | 5.93 |
| 18:51 | 1 | 33.1 | 41 | 64,991 | 0 | 17.73 | 0 | 20.22 | 0 | 0 | 2.85 | 6.02 | 6.73 |
| 18:49 | 1 | 33.2 | 40 | 65,009 | 0 | 22.52 | 0 | 18.91 | 4.53 | 0 | 2.85 | 6.03 | 6.72 |